map of DLA home
DLA - Airport
Location
City:  Douala, Littoral, Cameroon
Name:Douala International Airport
ICAO:FKKD
IATA:DLA

Details
Type:Airport (Aerodrome, Airfield)
Use:Public/Civil, Military, International (customs port of entry)
Latitude:400'22"N (4.006081)
Longitude:943'10"E (9.719481)
Datum:WGS 1984
Elevation:33 ft (10 m)
Variation:0.98W (WMM2015 magnetic declination)
0.12 annual change
Runways:1
Longest:9350 × 148 ft (2850 × 45 m), paved

Time
Time Zone:UTC+1
Local Time:

Weather
METAR:FKKD 210100Z VRB01KT 8000 SCT013 FEW016CB 26/25 Q1012 NOSIG
TAF:FKKD 202300Z 2100/2206 26003KT 8000 BKN013 FEW020CB
TEMPO 2102/2108 TS
TEMPO 2103/2108 2000 BR

Related Locations
Nearby:
Farthest:CIS: 12310 mi / 19811 km
Kanton Island (Canton Island, Abariringa Island) [Canton Island Airport], P, KI

Find:

   beyond  
but within

Other Information
Maps:
NOTAMs:
Links:
Sources:

  
  • flag of Cameroon
  

Sectional Chart

Flight Planning
at skyvector.com

Satellite Image

Google Maps Satellite view

 

Copyright © 2004-2019 Karl L. Swartz. All rights reserved.
The Great Circle Mapper name and logo are trademarks of the Great Circle Mapper.
All other trademarks mentioned herein belong to their respective owners.
Please see credits for attibutions and further copyright information.

  Follow gcmap on Facebook Follow gcmap on Twitter Follow gcmap on Google+ GCmap on LinkedIn

hCard Microformat

Geo Microformat